Theta_e
345 345 345 344 344 341 341 343 344 346 350 350 350 349 351 349 351 351 348 348 350 350 349 349 350 351 350 351 354 353 351 350 349 350 353 354 352 353 351 351 353 348 348
345 345 345 344 345 344 343 340 339 345 345 348 352 350 350 350 351 351 352 350 348 350 350 351 350 350 350 350 351 352 354 354 353 354 355 353 353 353 354 352 349 348 349
345 345 346 346 345 345 343 342 340 342 344 344 346 351 350 350 349 350 351 352 351 349 350 351 351 353 353 353 353 352 351 354 353 353 354 354 355 355 353 349 349 348 349
346 345 345 345 345 345 345 343 342 339 340 343 345 346 350 351 351 351 350 351 351 350 348 349 350 350 349 349 351 354 354 354 354 353 353 355 355 353 353 353 350 350 351
346 347 346 345 344 344 344 344 344 343 340 338 343 344 345 348 351 350 351 351 351 350 350 349 349 348 348 348 349 349 353 355 354 354 353 354 354 354 354 351 350 350 350
347 345 347 346 345 345 344 344 343 343 343 341 338 342 343 344 348 350 351 351 350 350 350 350 349 348 347 346 347 348 348 351 353 354 354 355 355 353 351 349 350 350 352
345 347 346 347 347 346 346 345 344 343 344 343 341 339 341 342 344 346 348 351 350 349 349 350 350 349 349 348 348 348 347 348 350 352 353 352 350 347 348 350 350 350 351
336 345 348 347 347 347 347 346 346 344 343 344 343 342 340 338 340 343 345 346 348 350 350 351 351 350 349 350 349 349 350 349 348 349 349 348 348 348 349 350 350 350 351
324 328 334 339 347 348 347 347 347 345 343 342 344 344 343 342 339 335 339 344 345 346 349 352 352 351 349 349 349 350 351 350 350 350 350 349 348 347 348 350 350 349 352
320 323 327 332 337 342 348 349 348 347 347 344 343 343 344 344 344 342 340 341 346 348 349 350 350 349 346 347 348 349 352 348 349 349 349 349 349 349 350 349 349 351 353
322 321 325 328 333 338 341 341 345 349 349 348 347 346 345 345 345 344 343 345 347 347 348 347 343 338 342 346 346 349 349 346 350 351 350 350 350 349 349 349 349 350 352
317 322 321 325 329 334 339 340 339 345 350 350 349 349 349 348 348 348 347 345 345 347 347 347 346 345 344 346 349 350 350 349 350 350 349 349 349 349 348 349 350 350 351
317 317 319 321 326 329 333 337 340 343 349 351 350 351 351 351 351 351 351 349 348 348 349 350 350 350 351 353 354 353 353 352 351 350 349 351 351 350 351 350 349 349 351
317 316 317 318 321 327 329 333 338 343 348 352 352 352 353 353 354 353 353 352 352 351 350 351 352 353 354 355 355 356 355 355 354 354 353 355 354 352 351 350 350 350 350
316 317 316 316 318 322 327 330 334 338 348 352 353 353 353 353 354 354 354 355 355 355 354 354 351 352 353 353 354 356 356 356 355 356 354 354 353 352 352 352 351 351 351
314 316 315 314 316 320 325 328 332 338 345 353 354 353 354 354 354 354 354 355 355 356 353 351 352 352 352 352 353 353 351 353 355 355 353 352 350 350 350 351 351 351 352
313 314 314 313 315 318 321 328 330 333 337 344 354 355 354 355 355 355 355 355 355 356 354 352 353 354 352 352 354 354 354 354 356 355 353 352 351 350 350 350 350 352 354
311 312 312 313 315 317 320 327 328 331 334 338 343 349 356 356 356 355 356 357 355 352 352 356 355 355 354 354 357 356 355 355 355 355 354 354 352 350 349 349 352 354 356
309 310 311 312 315 318 321 325 328 329 329 333 336 344 351 354 352 351 354 355 353 352 351 353 356 357 356 357 356 356 356 355 355 355 354 353 354 353 352 353 354 355 357
308 309 309 310 316 321 324 323 323 323 324 328 333 336 340 341 350 351 348 347 350 353 353 352 353 354 355 356 355 354 354 354 354 353 353 354 355 355 355 356 356 357 355
306 307 308 309 314 318 319 319 318 318 319 322 323 324 329 336 346 348 347 343 341 345 348 348 348 348 347 347 347 348 347 347 350 352 354 354 355 355 356 357 358 358 357
304 304 306 307 310 313 314 314 313 312 313 314 316 318 322 327 330 332 332 331 329 329 329 332 329 327 337 336 334 336 338 339 339 339 341 342 345 348 353 355 356 356 355
302 302 303 305 307 308 309 309 307 306 307 308 309 310 312 314 316 316 314 315 317 318 319 320 320 319 319 320 324 324 324 325 332 332 332 334 335 338 343 349 352 353 352
300 300 302 302 303 303 304 304 303 302 303 303 304 304 305 305 306 306 308 309 310 309 309 313 314 313 316 319 319 321 322 322 326 326 327 329 332 334 337 340 340 345 349
298 298 298 299 299 299 299 299 299 298 299 299 299 299 300 300 300 302 302 302 302 304 303 305 307 307 308 309 312 315 317 320 321 323 323 325 327 329 330 332 333 334 334
296 296 296 296 296 296 296 296 296 296 296 297 297 296 296 296 297 298 299 299 300 300 300 303 305 307 308 310 310 311 314 317 322 319 321 320 321 322 322 321 322 323 323
Wind_Speed
40 41 41 38 36 32 32 32 28 21 20 22 23 23 21 19 18 17 15 14 14 12 12 12 11 10 10 9 8 8 7 6 5 11 15 19 21 22 22 21 20 26 25
38 39 42 41 39 36 33 32 32 29 25 19 18 20 22 21 21 22 21 19 17 16 14 13 13 12 11 10 11 10 10 10 10 12 18 20 21 21 21 22 24 25 24
29 31 32 36 38 40 37 34 32 32 30 28 23 18 20 21 21 23 25 24 21 19 17 16 14 13 13 13 14 12 12 12 13 15 17 19 21 22 24 25 26 26 24
28 31 32 36 40 40 39 38 36 33 32 33 30 25 21 22 24 23 23 26 24 21 20 19 18 18 18 17 16 15 14 15 16 17 19 21 21 22 23 24 30 30 28
27 29 35 36 37 38 37 37 38 36 36 35 35 32 28 24 23 23 22 23 26 24 22 20 20 20 20 20 20 20 18 18 18 19 20 20 19 20 19 23 25 27 28
21 32 30 30 32 34 36 37 36 37 37 38 38 37 35 32 29 25 23 23 26 25 25 23 22 21 21 21 21 21 21 21 22 20 18 17 21 25 26 24 23 15 8
10 22 29 32 29 31 34 34 35 36 36 37 38 39 40 39 37 33 29 27 28 29 29 28 27 25 23 23 23 23 23 23 24 24 25 25 26 27 26 26 23 17 16
17 5 21 28 32 31 28 32 33 33 34 36 37 38 41 43 42 40 37 34 33 33 33 32 31 30 28 26 25 25 25 24 24 23 25 27 26 25 24 24 23 23 23
22 19 13 6 15 28 29 28 29 30 31 33 35 36 37 41 44 46 41 39 38 38 37 36 35 33 32 30 28 28 28 28 26 24 25 26 25 23 20 21 22 14 8
22 21 16 12 12 10 12 21 28 30 30 29 32 33 37 39 39 41 41 40 34 37 38 39 39 38 36 33 31 30 30 33 30 27 28 27 24 24 21 21 21 16 10
18 21 21 17 17 14 18 15 17 23 30 27 28 30 33 38 39 39 39 39 34 32 32 32 39 41 36 34 32 31 34 32 32 30 31 31 30 28 27 25 21 23 22
16 19 20 21 21 14 14 19 23 21 24 28 27 25 27 34 36 36 37 39 39 34 31 30 34 36 37 32 29 29 29 27 28 29 30 30 28 29 27 22 20 17 20
15 11 17 19 22 16 13 17 22 20 20 20 22 25 25 26 32 35 35 34 34 41 35 32 30 33 31 29 28 27 26 27 27 26 26 31 30 27 25 20 17 16 17
18 21 15 15 18 12 11 9 15 19 18 21 23 25 24 22 27 30 33 33 33 34 38 36 35 34 32 32 30 30 29 30 29 30 31 31 30 27 25 21 20 16 16
17 20 25 19 23 23 19 15 17 18 19 25 29 29 27 25 33 35 33 33 34 36 35 36 32 30 30 30 33 37 37 35 33 35 35 34 33 32 32 27 23 18 17
18 19 25 25 23 21 18 22 23 20 21 27 42 37 30 37 30 30 31 32 31 26 26 25 25 25 26 24 23 24 26 32 34 34 34 33 29 29 29 28 28 24 19
19 19 24 28 21 20 15 13 15 23 19 16 24 37 35 32 28 29 28 29 32 28 26 25 24 23 24 24 23 22 23 27 28 27 27 27 26 25 24 22 21 19 19
17 20 21 26 24 25 18 15 15 17 17 17 19 19 26 37 36 30 28 29 30 32 28 24 25 25 25 24 23 24 25 22 23 24 25 26 24 23 20 19 19 20 21
18 19 17 21 20 22 19 20 19 17 25 19 27 20 17 14 22 32 29 31 29 29 33 27 28 26 26 26 26 26 26 22 23 25 26 25 25 21 21 20 20 25 22
20 19 14 18 19 17 12 13 18 17 16 8 14 11 9 13 11 16 25 30 27 27 27 30 28 28 26 24 24 24 25 24 26 27 25 25 25 24 23 23 22 19 24
19 20 17 20 16 14 11 10 14 12 15 15 16 14 18 17 12 20 23 20 19 18 21 21 24 21 18 17 17 17 16 15 15 19 22 21 24 24 28 28 26 24 21
17 18 17 17 12 14 9 7 11 11 8 9 10 11 6 7 11 10 8 7 6 7 8 10 9 8 11 9 6 7 9 9 9 10 11 12 15 15 20 24 24 20 22
15 13 11 12 11 13 7 5 8 7 5 6 7 8 8 8 9 7 6 7 6 5 6 6 7 8 8 8 7 4 2 3 2 7 7 7 3 5 5 14 20 16 18
10 9 9 7 8 8 4 2 3 4 4 7 10 9 9 9 10 12 11 12 14 15 15 17 17 15 15 14 13 12 11 10 9 6 7 5 4 7 9 9 9 3 5
5 4 4 5 5 4 2 1 4 5 8 12 13 13 10 10 13 16 16 16 17 18 17 20 20 18 17 17 17 15 13 13 14 10 8 6 7 10 11 11 10 9 9
2 2 2 2 3 3 4 5 11 10 13 17 17 16 14 14 16 20 20 19 20 22 20 20 18 17 16 17 15 12 12 11 10 6 9 8 9 12 11 12 11 10 8
Wind_Direction
212 217 220 222 222 220 223 227 231 234 232 244 247 243 239 236 236 242 248 250 252 255 260 255 263 269 274 277 279 278 284 285 275 301 310 326 332 340 344 351 353 355 355
214 214 219 224 225 225 225 227 224 229 236 247 245 242 241 241 241 242 245 248 252 256 259 257 263 267 273 275 276 284 282 286 284 292 312 321 326 336 339 341 347 352 354
212 215 218 222 229 230 229 231 230 229 234 240 247 246 238 244 247 248 247 246 250 257 257 258 264 265 271 279 279 283 283 286 291 290 301 311 319 329 333 338 341 346 351
215 216 219 225 229 234 235 233 234 234 234 236 239 243 245 250 251 253 257 243 244 252 255 257 261 263 270 276 280 279 283 289 294 296 300 309 314 322 327 333 334 339 341
223 223 225 229 232 234 236 240 240 238 238 238 240 240 243 248 249 250 255 244 240 248 255 259 263 266 271 273 274 277 282 284 290 292 296 302 307 316 321 325 324 332 336
237 231 232 228 231 234 237 240 242 245 243 241 240 242 243 242 243 246 249 248 242 247 253 260 266 269 271 272 272 273 274 276 280 284 288 289 297 306 310 316 319 326 321
287 244 234 235 235 236 240 241 242 244 246 246 245 242 244 245 244 243 245 248 248 251 257 261 265 268 272 276 279 277 275 272 272 276 278 280 289 300 308 308 311 306 294
13 296 239 235 238 237 236 237 242 243 241 245 245 245 245 247 248 246 244 245 249 254 257 260 263 268 271 277 283 281 277 275 272 274 277 284 288 296 297 299 302 300 302
8 359 341 331 241 235 230 235 242 241 238 239 243 247 245 249 249 249 247 246 247 251 254 256 258 265 270 276 277 277 277 276 276 277 279 282 286 290 292 296 292 290 292
13 359 341 310 284 262 235 237 244 243 241 238 239 241 249 251 253 252 248 243 241 245 249 255 258 261 267 271 271 272 273 274 278 283 284 285 286 287 284 282 281 268 265
7 3 353 341 284 263 253 240 247 241 235 235 237 240 242 249 250 251 247 239 233 239 242 246 255 262 264 266 268 266 267 276 280 282 283 284 284 283 283 284 276 266 258
359 351 354 340 307 285 258 259 262 257 239 234 231 236 237 245 250 250 246 242 239 233 235 244 252 259 266 268 266 266 269 272 272 273 275 276 277 281 286 287 286 276 266
330 344 336 337 308 321 283 243 257 258 243 241 234 230 233 232 240 247 245 242 240 237 239 242 247 259 263 264 261 262 266 264 262 263 264 272 276 281 285 281 280 282 269
319 321 317 319 307 304 312 277 278 261 247 241 235 234 231 227 228 235 238 237 239 240 241 245 248 251 255 261 263 261 259 259 260 263 265 272 275 272 270 269 272 272 260
312 317 316 316 307 322 329 316 289 280 267 244 237 232 222 221 228 231 229 236 233 235 236 239 240 241 245 251 255 259 260 259 257 261 262 265 267 269 269 267 261 260 244
301 308 304 307 308 319 320 324 317 312 310 265 251 238 233 241 235 236 238 244 250 247 229 227 232 234 237 241 243 247 250 255 259 260 257 258 257 258 261 261 261 247 231
292 297 291 293 307 302 315 306 302 314 307 293 250 243 243 239 237 238 243 241 240 236 222 222 226 226 232 234 237 238 242 254 264 259 259 258 258 257 251 245 239 230 223
280 282 295 298 303 301 306 291 309 304 295 328 321 290 261 242 240 252 244 235 229 227 224 223 221 228 231 234 238 242 250 253 254 257 258 257 253 249 242 235 226 217 220
284 290 297 299 301 293 303 306 307 313 312 342 309 303 297 268 260 251 243 233 224 230 230 227 230 232 232 236 243 248 253 252 256 259 257 251 251 237 233 230 232 231 227
289 290 295 296 289 294 298 299 305 307 303 308 292 330 314 248 224 251 256 240 228 223 231 233 230 235 238 242 245 249 252 253 255 252 250 251 249 240 233 234 233 225 227
296 296 296 291 287 283 285 296 298 298 303 312 320 317 305 265 248 253 253 247 245 241 235 233 233 232 233 235 236 233 237 246 250 246 243 247 249 242 242 240 233 232 236
296 291 286 284 296 289 295 311 301 298 302 306 316 311 322 178 153 162 181 181 187 203 213 203 188 173 180 199 224 244 238 237 253 269 266 263 256 251 254 243 239 239 236
299 295 289 291 292 287 295 323 313 305 313 327 360 355 356 44 80 105 116 120 134 140 146 149 136 121 105 95 96 88 38 319 235 279 288 290 327 338 301 268 244 230 240
287 282 284 285 292 290 304 313 309 346 16 36 37 33 47 65 89 99 108 115 117 117 118 120 114 103 98 93 83 76 65 49 52 49 48 1 30 46 53 59 57 72 218
273 278 271 275 282 300 312 44 72 50 69 72 66 65 67 85 99 105 108 112 114 113 107 109 105 102 96 94 92 86 75 66 58 61 63 61 40 50 60 49 40 36 17
39 81 99 116 119 129 125 116 94 90 93 98 91 83 81 85 95 101 105 104 102 96 92 90 91 90 89 83 73 65 81 86 92 58 62 49 52 58 54 53 53 47 37